owner,sensor,date,latitude,longitude,relative_humidity,qcFlag 
COMPS,ioos:station:USF.COMPS:C13:1,2014-01-01T00:05:00Z,26.0630,-83.0730,113.17,1111122 
COMPS,ioos:station:USF.COMPS:C13:1,2014-01-01T00:35:00Z,26.0630,-83.0730,113.18,1111122 
COMPS,ioos:station:USF.COMPS:C13:1,2014-01-01T01:05:00Z,26.0630,-83.0730,113.19,1111122 
COMPS,ioos:station:USF.COMPS:C13:1,2014-01-01T01:35:00Z,26.0630,-83.0730,113.2,1111122 
COMPS,ioos:station:USF.COMPS:C13:1,2014-01-01T02:05:00Z,26.0630,-83.0730,113.21,1111122 
COMPS,ioos:station:USF.COMPS:C13:1,2014-01-01T02:35:00Z,26.0630,-83.0730,113.21,1111122 
COMPS,ioos:station:USF.COMPS:C13:1,2014-01-01T03:05:00Z,26.0630,-83.0730,113.18,1111122 
COMPS,ioos:station:USF.COMPS:C13:1,2014-01-01T03:35:00Z,26.0630,-83.0730,113.16,1111122 
COMPS,ioos:station:USF.COMPS:C13:1,2014-01-01T04:05:00Z,26.0630,-83.0730,113.17,1111122 
COMPS,ioos:station:USF.COMPS:C13:1,2014-01-01T04:35:00Z,26.0630,-83.0730,113.18,1111122 
COMPS,ioos:station:USF.COMPS:C13:1,2014-01-01T05:05:00Z,26.0630,-83.0730,113.17,1111122 
COMPS,ioos:station:USF.COMPS:C13:1,2014-01-01T05:35:00Z,26.0630,-83.0730,113.18,1111122 
COMPS,ioos:station:USF.COMPS:C13:1,2014-01-01T06:05:00Z,26.0630,-83.0730,113.19,1111122 
COMPS,ioos:station:USF.COMPS:C13:1,2014-01-01T06:35:00Z,26.0630,-83.0730,113.17,1111122 
COMPS,ioos:station:USF.COMPS:C13:1,2014-01-01T07:05:00Z,26.0630,-83.0730,113.19,1111122 
COMPS,ioos:station:USF.COMPS:C13:1,2014-01-01T07:35:00Z,26.0630,-83.0730,113.19,1111122 
COMPS,ioos:station:USF.COMPS:C13:1,2014-01-01T08:05:00Z,26.0630,-83.0730,113.18,1111122 
COMPS,ioos:station:USF.COMPS:C13:1,2014-01-01T08:35:00Z,26.0630,-83.0730,113.17,1111122 
COMPS,ioos:station:USF.COMPS:C13:1,2014-01-01T14:55:00Z,26.0630,-83.0730,113.15,1111122 
COMPS,ioos:station:USF.COMPS:C13:1,2014-01-01T15:35:00Z,26.0630,-83.0730,113.18,1111122 
COMPS,ioos:station:USF.COMPS:C13:1,2014-01-01T16:05:00Z,26.0630,-83.0730,113.17,1111122 
COMPS,ioos:station:USF.COMPS:C13:1,2014-01-01T16:35:00Z,26.0630,-83.0730,113.18,1111122 
COMPS,ioos:station:USF.COMPS:C13:1,2014-01-01T17:05:00Z,26.0630,-83.0730,113.21,1111122 
COMPS,ioos:station:USF.COMPS:C13:1,2014-01-01T17:35:00Z,26.0630,-83.0730,113.2,1111122 
COMPS,ioos:station:USF.COMPS:C13:1,2014-01-01T18:05:00Z,26.0630,-83.0730,113.2,1111122 
COMPS,ioos:station:USF.COMPS:C13:1,2014-01-01T18:35:00Z,26.0630,-83.0730,113.2,1111122 
COMPS,ioos:station:USF.COMPS:C13:1,2014-01-01T19:05:00Z,26.0630,-83.0730,113.22,1111122 
COMPS,ioos:station:USF.COMPS:C13:1,2014-01-01T19:35:00Z,26.0630,-83.0730,113.21,1111122 
COMPS,ioos:station:USF.COMPS:C13:1,2014-01-01T20:05:00Z,26.0630,-83.0730,113.2,1111122 
COMPS,ioos:station:USF.COMPS:C13:1,2014-01-01T20:35:00Z,26.0630,-83.0730,113.23,1111122 
COMPS,ioos:station:USF.COMPS:C13:1,2014-01-01T21:05:00Z,26.0630,-83.0730,113.22,1111122 
COMPS,ioos:station:USF.COMPS:C13:1,2014-01-01T21:35:00Z,26.0630,-83.0730,113.24,1111122 
COMPS,ioos:station:USF.COMPS:C13:1,2014-01-01T22:05:00Z,26.0630,-83.0730,113.25,1111122 
COMPS,ioos:station:USF.COMPS:C13:1,2014-01-01T22:35:00Z,26.0630,-83.0730,113.24,1111122 
COMPS,ioos:station:USF.COMPS:C13:1,2014-01-01T23:05:00Z,26.0630,-83.0730,113.25,1111122 
COMPS,ioos:station:USF.COMPS:C13:1,2014-01-01T23:35:00Z,26.0630,-83.0730,113.26,1111122 
COMPS,ioos:station:USF.COMPS:C13:1,2014-01-02T00:05:00Z,26.0630,-83.0730,113.25,1111122 
COMPS,ioos:station:USF.COMPS:C13:1,2014-01-02T00:35:00Z,26.0630,-83.0730,113.22,1111122 
COMPS,ioos:station:USF.COMPS:C13:1,2014-01-02T01:05:00Z,26.0630,-83.0730,113.22,1111122 
COMPS,ioos:station:USF.COMPS:C13:1,2014-01-02T01:35:00Z,26.0630,-83.0730,113.23,1111122 
COMPS,ioos:station:USF.COMPS:C13:1,2014-01-02T02:05:00Z,26.0630,-83.0730,113.22,1111122 
COMPS,ioos:station:USF.COMPS:C13:1,2014-01-02T02:35:00Z,26.0630,-83.0730,113.23,1111122 
COMPS,ioos:station:USF.COMPS:C13:1,2014-01-02T03:05:00Z,26.0630,-83.0730,113.21,1111122 
COMPS,ioos:station:USF.COMPS:C13:1,2014-01-02T03:35:00Z,26.0630,-83.0730,113.23,1111122 
COMPS,ioos:station:USF.COMPS:C13:1,2014-01-02T04:05:00Z,26.0630,-83.0730,113.23,1111122 
COMPS,ioos:station:USF.COMPS:C13:1,2014-01-02T04:35:00Z,26.0630,-83.0730,113.22,1111122 
COMPS,ioos:station:USF.COMPS:C13:1,2014-01-02T05:05:00Z,26.0630,-83.0730,113.24,1111122 
COMPS,ioos:station:USF.COMPS:C13:1,2014-01-02T05:35:00Z,26.0630,-83.0730,113.24,1111122 
COMPS,ioos:station:USF.COMPS:C13:1,2014-01-02T06:05:00Z,26.0630,-83.0730,113.25,1111122 
COMPS,ioos:station:USF.COMPS:C13:1,2014-01-02T06:35:00Z,26.0630,-83.0730,113.26,1111122 
COMPS,ioos:station:USF.COMPS:C13:1,2014-01-02T07:05:00Z,26.0630,-83.0730,113.27,1111122 
COMPS,ioos:station:USF.COMPS:C13:1,2014-01-02T07:35:00Z,26.0630,-83.0730,113.26,1111122 
COMPS,ioos:station:USF.COMPS:C13:1,2014-01-02T08:05:00Z,26.0630,-83.0730,113.26,1111122 
COMPS,ioos:station:USF.COMPS:C13:1,2014-01-02T08:35:00Z,26.0630,-83.0730,113.25,1111122 
COMPS,ioos:station:USF.COMPS:C13:1,2014-01-02T09:05:00Z,26.0630,-83.0730,113.26,1111122 
COMPS,ioos:station:USF.COMPS:C13:1,2014-01-02T15:05:00Z,26.0630,-83.0730,87.52,1111122 
COMPS,ioos:station:USF.COMPS:C13:1,2014-01-02T15:35:00Z,26.0630,-83.0730,89.36,1111122 
COMPS,ioos:station:USF.COMPS:C13:1,2014-01-02T16:05:00Z,26.0630,-83.0730,89.88,1111122 
COMPS,ioos:station:USF.COMPS:C13:1,2014-01-02T16:35:00Z,26.0630,-83.0730,90.31,1111122 
COMPS,ioos:station:USF.COMPS:C13:1,2014-01-02T17:05:00Z,26.0630,-83.0730,91.24,1111122 
COMPS,ioos:station:USF.COMPS:C13:1,2014-01-02T17:35:00Z,26.0630,-83.0730,91.68,1111122 
COMPS,ioos:station:USF.COMPS:C13:1,2014-01-02T18:05:00Z,26.0630,-83.0730,92.04,1111122 
COMPS,ioos:station:USF.COMPS:C13:1,2014-01-02T18:35:00Z,26.0630,-83.0730,92.33,1111122 
COMPS,ioos:station:USF.COMPS:C13:1,2014-01-02T19:05:00Z,26.0630,-83.0730,92.07,1111122 
COMPS,ioos:station:USF.COMPS:C13:1,2014-01-02T19:35:00Z,26.0630,-83.0730,91.45,1111122 
COMPS,ioos:station:USF.COMPS:C13:1,2014-01-02T20:05:00Z,26.0630,-83.0730,91.42,1111122 
COMPS,ioos:station:USF.COMPS:C13:1,2014-01-02T20:35:00Z,26.0630,-83.0730,89.8,1111122 
COMPS,ioos:station:USF.COMPS:C13:1,2014-01-02T21:05:00Z,26.0630,-83.0730,89.33,1111122 
COMPS,ioos:station:USF.COMPS:C13:1,2014-01-02T21:35:00Z,26.0630,-83.0730,89.66,1111122 
COMPS,ioos:station:USF.COMPS:C13:1,2014-01-02T22:05:00Z,26.0630,-83.0730,90.04,1111122 
COMPS,ioos:station:USF.COMPS:C13:1,2014-01-02T22:35:00Z,26.0630,-83.0730,91.28,1111122 
COMPS,ioos:station:USF.COMPS:C13:1,2014-01-02T23:05:00Z,26.0630,-83.0730,91.47,1111122 
COMPS,ioos:station:USF.COMPS:C13:1,2014-01-02T23:35:00Z,26.0630,-83.0730,93.23,1111122 
COMPS,ioos:station:USF.COMPS:C13:1,2014-01-03T00:05:00Z,26.0630,-83.0730,89.34,1111122 
COMPS,ioos:station:USF.COMPS:C13:1,2014-01-03T00:35:00Z,26.0630,-83.0730,89.91,1111122 
COMPS,ioos:station:USF.COMPS:C13:1,2014-01-03T01:05:00Z,26.0630,-83.0730,89.85,1111122 
COMPS,ioos:station:USF.COMPS:C13:1,2014-01-03T01:35:00Z,26.0630,-83.0730,91.25,1111122 
COMPS,ioos:station:USF.COMPS:C13:1,2014-01-03T02:05:00Z,26.0630,-83.0730,84.28,1111122 
COMPS,ioos:station:USF.COMPS:C13:1,2014-01-03T02:35:00Z,26.0630,-83.0730,78.52,1111122 
COMPS,ioos:station:USF.COMPS:C13:1,2014-01-03T03:05:00Z,26.0630,-83.0730,81.66,1111122 
COMPS,ioos:station:USF.COMPS:C13:1,2014-01-03T03:35:00Z,26.0630,-83.0730,80.06,1111122 
COMPS,ioos:station:USF.COMPS:C13:1,2014-01-03T04:05:00Z,26.0630,-83.0730,78.5,1111122 
COMPS,ioos:station:USF.COMPS:C13:1,2014-01-03T04:35:00Z,26.0630,-83.0730,78.77,1111122 
COMPS,ioos:station:USF.COMPS:C13:1,2014-01-03T05:05:00Z,26.0630,-83.0730,78.95,1111122 
COMPS,ioos:station:USF.COMPS:C13:1,2014-01-03T05:35:00Z,26.0630,-83.0730,88.46,1111122 
COMPS,ioos:station:USF.COMPS:C13:1,2014-01-03T06:05:00Z,26.0630,-83.0730,86.55,1111122 
COMPS,ioos:station:USF.COMPS:C13:1,2014-01-03T06:35:00Z,26.0630,-83.0730,82.35,1111122 
COMPS,ioos:station:USF.COMPS:C13:1,2014-01-03T07:05:00Z,26.0630,-83.0730,82.31,1111122 
COMPS,ioos:station:USF.COMPS:C13:1,2014-01-03T07:35:00Z,26.0630,-83.0730,78.37,1111122 
COMPS,ioos:station:USF.COMPS:C13:1,2014-01-03T08:05:00Z,26.0630,-83.0730,77.11,1111122 
COMPS,ioos:station:USF.COMPS:C13:1,2014-01-03T08:35:00Z,26.0630,-83.0730,77.76,1111122 
COMPS,ioos:station:USF.COMPS:C13:1,2014-01-03T15:05:00Z,26.0630,-83.0730,73.1,1111122 
COMPS,ioos:station:USF.COMPS:C13:1,2014-01-03T15:35:00Z,26.0630,-83.0730,74.97,1111122 
COMPS,ioos:station:USF.COMPS:C13:1,2014-01-03T16:05:00Z,26.0630,-83.0730,75.25,1111122 
COMPS,ioos:station:USF.COMPS:C13:1,2014-01-03T16:35:00Z,26.0630,-83.0730,74.15,1111122 
COMPS,ioos:station:USF.COMPS:C13:1,2014-01-03T17:05:00Z,26.0630,-83.0730,74.77,1111122 
COMPS,ioos:station:USF.COMPS:C13:1,2014-01-03T17:35:00Z,26.0630,-83.0730,74.55,1111122 
COMPS,ioos:station:USF.COMPS:C13:1,2014-01-03T18:05:00Z,26.0630,-83.0730,71.79,1111122 
COMPS,ioos:station:USF.COMPS:C13:1,2014-01-03T18:35:00Z,26.0630,-83.0730,69.66,1111122 
COMPS,ioos:station:USF.COMPS:C13:1,2014-01-03T19:05:00Z,26.0630,-83.0730,69.1,1111122 
COMPS,ioos:station:USF.COMPS:C13:1,2014-01-03T19:35:00Z,26.0630,-83.0730,68.21,1111122 
COMPS,ioos:station:USF.COMPS:C13:1,2014-01-03T20:05:00Z,26.0630,-83.0730,66.44,1111122 
COMPS,ioos:station:USF.COMPS:C13:1,2014-01-03T20:35:00Z,26.0630,-83.0730,64.72,1111122 
COMPS,ioos:station:USF.COMPS:C13:1,2014-01-03T21:05:00Z,26.0630,-83.0730,65.73,1111122 
COMPS,ioos:station:USF.COMPS:C13:1,2014-01-03T21:35:00Z,26.0630,-83.0730,66.23,1111122 
COMPS,ioos:station:USF.COMPS:C13:1,2014-01-03T22:05:00Z,26.0630,-83.0730,66.07,1111122 
COMPS,ioos:station:USF.COMPS:C13:1,2014-01-03T22:35:00Z,26.0630,-83.0730,64.9,1111122 
COMPS,ioos:station:USF.COMPS:C13:1,2014-01-03T23:05:00Z,26.0630,-83.0730,62.49,1111122 
COMPS,ioos:station:USF.COMPS:C13:1,2014-01-03T23:35:00Z,26.0630,-83.0730,62.85,1111122 
COMPS,ioos:station:USF.COMPS:C13:1,2014-01-04T00:05:00Z,26.0630,-83.0730,63.28,1111122 
COMPS,ioos:station:USF.COMPS:C13:1,2014-01-04T00:35:00Z,26.0630,-83.0730,66.38,1111122 
COMPS,ioos:station:USF.COMPS:C13:1,2014-01-04T01:05:00Z,26.0630,-83.0730,71.7,1111122 
COMPS,ioos:station:USF.COMPS:C13:1,2014-01-04T01:35:00Z,26.0630,-83.0730,72.2,1111122 
COMPS,ioos:station:USF.COMPS:C13:1,2014-01-04T02:05:00Z,26.0630,-83.0730,74.74,1111122 
COMPS,ioos:station:USF.COMPS:C13:1,2014-01-04T02:35:00Z,26.0630,-83.0730,76.66,1111122 
COMPS,ioos:station:USF.COMPS:C13:1,2014-01-04T03:05:00Z,26.0630,-83.0730,78.65,1111122 
COMPS,ioos:station:USF.COMPS:C13:1,2014-01-04T03:35:00Z,26.0630,-83.0730,80.42,1111122 
COMPS,ioos:station:USF.COMPS:C13:1,2014-01-04T04:05:00Z,26.0630,-83.0730,82.53,1111122 
COMPS,ioos:station:USF.COMPS:C13:1,2014-01-04T04:35:00Z,26.0630,-83.0730,84.31,1111122 
COMPS,ioos:station:USF.COMPS:C13:1,2014-01-04T05:05:00Z,26.0630,-83.0730,85.33,1111122 
COMPS,ioos:station:USF.COMPS:C13:1,2014-01-04T05:35:00Z,26.0630,-83.0730,86.85,1111122 
COMPS,ioos:station:USF.COMPS:C13:1,2014-01-04T06:05:00Z,26.0630,-83.0730,86.9,1111122 
COMPS,ioos:station:USF.COMPS:C13:1,2014-01-04T06:35:00Z,26.0630,-83.0730,87.44,1111122 
COMPS,ioos:station:USF.COMPS:C13:1,2014-01-04T07:05:00Z,26.0630,-83.0730,87.65,1111122 
COMPS,ioos:station:USF.COMPS:C13:1,2014-01-04T07:35:00Z,26.0630,-83.0730,87.54,1111122 
COMPS,ioos:station:USF.COMPS:C13:1,2014-01-04T08:05:00Z,26.0630,-83.0730,85.54,1111122 
COMPS,ioos:station:USF.COMPS:C13:1,2014-01-04T08:35:00Z,26.0630,-83.0730,85.02,1111122 
COMPS,ioos:station:USF.COMPS:C13:1,2014-01-05T15:05:00Z,26.0630,-83.0730,86.52,1111122 
COMPS,ioos:station:USF.COMPS:C13:1,2014-01-05T15:35:00Z,26.0630,-83.0730,85.83,1111122 
COMPS,ioos:station:USF.COMPS:C13:1,2014-01-05T16:05:00Z,26.0630,-83.0730,85.51,1111122 
COMPS,ioos:station:USF.COMPS:C13:1,2014-01-05T16:35:00Z,26.0630,-83.0730,86.4,1111122 
COMPS,ioos:station:USF.COMPS:C13:1,2014-01-05T17:05:00Z,26.0630,-83.0730,86.88,1111122 
COMPS,ioos:station:USF.COMPS:C13:1,2014-01-05T17:35:00Z,26.0630,-83.0730,86.67,1111122 
COMPS,ioos:station:USF.COMPS:C13:1,2014-01-05T18:05:00Z,26.0630,-83.0730,85.87,1111122 
COMPS,ioos:station:USF.COMPS:C13:1,2014-01-05T18:35:00Z,26.0630,-83.0730,85.34,1111122 
COMPS,ioos:station:USF.COMPS:C13:1,2014-01-05T19:05:00Z,26.0630,-83.0730,84.92,1111122 
COMPS,ioos:station:USF.COMPS:C13:1,2014-01-05T19:35:00Z,26.0630,-83.0730,84.6,1111122 
COMPS,ioos:station:USF.COMPS:C13:1,2014-01-05T20:05:00Z,26.0630,-83.0730,85.91,1111122 
COMPS,ioos:station:USF.COMPS:C13:1,2014-01-05T20:35:00Z,26.0630,-83.0730,86.54,1111122 
COMPS,ioos:station:USF.COMPS:C13:1,2014-01-05T21:05:00Z,26.0630,-83.0730,86.82,1111122 
COMPS,ioos:station:USF.COMPS:C13:1,2014-01-05T21:35:00Z,26.0630,-83.0730,87.75,1111122 
COMPS,ioos:station:USF.COMPS:C13:1,2014-01-05T22:05:00Z,26.0630,-83.0730,88.6,1111122 
COMPS,ioos:station:USF.COMPS:C13:1,2014-01-05T22:35:00Z,26.0630,-83.0730,89.58,1111122 
COMPS,ioos:station:USF.COMPS:C13:1,2014-01-05T23:05:00Z,26.0630,-83.0730,90.82,1111122 
COMPS,ioos:station:USF.COMPS:C13:1,2014-01-05T23:35:00Z,26.0630,-83.0730,91.44,1111122 
COMPS,ioos:station:USF.COMPS:C13:1,2014-01-06T00:05:00Z,26.0630,-83.0730,91.92,1111122 
COMPS,ioos:station:USF.COMPS:C13:1,2014-01-06T00:35:00Z,26.0630,-83.0730,92.61,1111122 
COMPS,ioos:station:USF.COMPS:C13:1,2014-01-06T01:05:00Z,26.0630,-83.0730,93.09,1111122 
COMPS,ioos:station:USF.COMPS:C13:1,2014-01-06T01:35:00Z,26.0630,-83.0730,93.44,1111122 
COMPS,ioos:station:USF.COMPS:C13:1,2014-01-06T02:05:00Z,26.0630,-83.0730,94.09,1111122 
COMPS,ioos:station:USF.COMPS:C13:1,2014-01-06T02:35:00Z,26.0630,-83.0730,94.67,1111122 
COMPS,ioos:station:USF.COMPS:C13:1,2014-01-06T03:05:00Z,26.0630,-83.0730,94.85,1111122 
COMPS,ioos:station:USF.COMPS:C13:1,2014-01-06T03:35:00Z,26.0630,-83.0730,94.91,1111122 
COMPS,ioos:station:USF.COMPS:C13:1,2014-01-06T04:05:00Z,26.0630,-83.0730,95.14,1111122 
COMPS,ioos:station:USF.COMPS:C13:1,2014-01-06T04:35:00Z,26.0630,-83.0730,95.53,1111122 
COMPS,ioos:station:USF.COMPS:C13:1,2014-01-06T05:05:00Z,26.0630,-83.0730,95.8,1111122 
COMPS,ioos:station:USF.COMPS:C13:1,2014-01-06T05:35:00Z,26.0630,-83.0730,95.88,1111122 
COMPS,ioos:station:USF.COMPS:C13:1,2014-01-06T06:05:00Z,26.0630,-83.0730,95.97,1111122 
COMPS,ioos:station:USF.COMPS:C13:1,2014-01-06T06:35:00Z,26.0630,-83.0730,96.06,1111122 
COMPS,ioos:station:USF.COMPS:C13:1,2014-01-06T07:05:00Z,26.0630,-83.0730,96.14,1111122 
COMPS,ioos:station:USF.COMPS:C13:1,2014-01-06T07:35:00Z,26.0630,-83.0730,96.26,1111122 
COMPS,ioos:station:USF.COMPS:C13:1,2014-01-06T08:05:00Z,26.0630,-83.0730,96.48,1111122 
COMPS,ioos:station:USF.COMPS:C13:1,2014-01-06T08:35:00Z,26.0630,-83.0730,98.32,1111122 
COMPS,ioos:station:USF.COMPS:C13:1,2014-01-06T09:05:00Z,26.0630,-83.0730,97.57,1111122 
COMPS,ioos:station:USF.COMPS:C13:1,2014-01-06T09:35:00Z,26.0630,-83.0730,97.17,1111122 
COMPS,ioos:station:USF.COMPS:C13:1,2014-01-06T10:05:00Z,26.0630,-83.0730,96.64,1111122 
COMPS,ioos:station:USF.COMPS:C13:1,2014-01-06T10:35:00Z,26.0630,-83.0730,96.16,1111122 
COMPS,ioos:station:USF.COMPS:C13:1,2014-01-06T11:05:00Z,26.0630,-83.0730,95.58,1111122 
COMPS,ioos:station:USF.COMPS:C13:1,2014-01-06T11:35:00Z,26.0630,-83.0730,94.95,1111122 
COMPS,ioos:station:USF.COMPS:C13:1,2014-01-06T12:05:00Z,26.0630,-83.0730,94.24,1111122 
COMPS,ioos:station:USF.COMPS:C13:1,2014-01-06T12:35:00Z,26.0630,-83.0730,93.69,1111122 
COMPS,ioos:station:USF.COMPS:C13:1,2014-01-06T13:05:00Z,26.0630,-83.0730,92.28,1111122 
COMPS,ioos:station:USF.COMPS:C13:1,2014-01-06T13:35:00Z,26.0630,-83.0730,87.91,1111122 
COMPS,ioos:station:USF.COMPS:C13:1,2014-01-06T14:05:00Z,26.0630,-83.0730,87.53,1111122 
COMPS,ioos:station:USF.COMPS:C13:1,2014-01-06T14:35:00Z,26.0630,-83.0730,88.33,1111122 
COMPS,ioos:station:USF.COMPS:C13:1,2014-01-06T15:05:00Z,26.0630,-83.0730,90.98,1111122 
COMPS,ioos:station:USF.COMPS:C13:1,2014-01-06T15:35:00Z,26.0630,-83.0730,91.16,1111122 
COMPS,ioos:station:USF.COMPS:C13:1,2014-01-06T16:05:00Z,26.0630,-83.0730,90.88,1111122 
COMPS,ioos:station:USF.COMPS:C13:1,2014-01-06T16:35:00Z,26.0630,-83.0730,91.19,1111122 
COMPS,ioos:station:USF.COMPS:C13:1,2014-01-06T17:05:00Z,26.0630,-83.0730,91.65,1111122 
COMPS,ioos:station:USF.COMPS:C13:1,2014-01-06T17:35:00Z,26.0630,-83.0730,92.19,1111122 
COMPS,ioos:station:USF.COMPS:C13:1,2014-01-06T18:05:00Z,26.0630,-83.0730,92.48,1111122 
COMPS,ioos:station:USF.COMPS:C13:1,2014-01-06T18:35:00Z,26.0630,-83.0730,89.81,1111122 
COMPS,ioos:station:USF.COMPS:C13:1,2014-01-06T19:05:00Z,26.0630,-83.0730,92.78,1111122 
COMPS,ioos:station:USF.COMPS:C13:1,2014-01-06T19:35:00Z,26.0630,-83.0730,89.82,1111122 
COMPS,ioos:station:USF.COMPS:C13:1,2014-01-06T20:05:00Z,26.0630,-83.0730,88.24,1111122 
COMPS,ioos:station:USF.COMPS:C13:1,2014-01-06T20:35:00Z,26.0630,-83.0730,87.56,1111122 
COMPS,ioos:station:USF.COMPS:C13:1,2014-01-06T21:05:00Z,26.0630,-83.0730,89.25,1111122 
COMPS,ioos:station:USF.COMPS:C13:1,2014-01-06T21:35:00Z,26.0630,-83.0730,82.81,1111122 
COMPS,ioos:station:USF.COMPS:C13:1,2014-01-06T22:05:00Z,26.0630,-83.0730,83.01,1111122 
COMPS,ioos:station:USF.COMPS:C13:1,2014-01-06T22:35:00Z,26.0630,-83.0730,80.82,1111122 
COMPS,ioos:station:USF.COMPS:C13:1,2014-01-06T23:05:00Z,26.0630,-83.0730,80.62,1111122 
COMPS,ioos:station:USF.COMPS:C13:1,2014-01-06T23:35:00Z,26.0630,-83.0730,81.91,1111122 
COMPS,ioos:station:USF.COMPS:C13:1,2014-01-07T00:05:00Z,26.0630,-83.0730,78.77,1111122 
COMPS,ioos:station:USF.COMPS:C13:1,2014-01-07T00:35:00Z,26.0630,-83.0730,75.81,1111122 
COMPS,ioos:station:USF.COMPS:C13:1,2014-01-07T01:05:00Z,26.0630,-83.0730,75.87,1111122 
COMPS,ioos:station:USF.COMPS:C13:1,2014-01-07T01:35:00Z,26.0630,-83.0730,75.85,1111122 
COMPS,ioos:station:USF.COMPS:C13:1,2014-01-07T02:05:00Z,26.0630,-83.0730,76.85,1111122 
COMPS,ioos:station:USF.COMPS:C13:1,2014-01-07T02:35:00Z,26.0630,-83.0730,75.1,1111122 
COMPS,ioos:station:USF.COMPS:C13:1,2014-01-07T03:05:00Z,26.0630,-83.0730,73.44,1111122 
COMPS,ioos:station:USF.COMPS:C13:1,2014-01-07T03:35:00Z,26.0630,-83.0730,73.27,1111122 
COMPS,ioos:station:USF.COMPS:C13:1,2014-01-07T04:05:00Z,26.0630,-83.0730,72.39,1111122 
COMPS,ioos:station:USF.COMPS:C13:1,2014-01-07T04:35:00Z,26.0630,-83.0730,71.74,1111122 
COMPS,ioos:station:USF.COMPS:C13:1,2014-01-07T05:05:00Z,26.0630,-83.0730,72.34,1111122 
COMPS,ioos:station:USF.COMPS:C13:1,2014-01-07T05:35:00Z,26.0630,-83.0730,71.73,1111122 
COMPS,ioos:station:USF.COMPS:C13:1,2014-01-07T06:05:00Z,26.0630,-83.0730,70.95,1111122 
COMPS,ioos:station:USF.COMPS:C13:1,2014-01-07T06:35:00Z,26.0630,-83.0730,70.55,1111122 
COMPS,ioos:station:USF.COMPS:C13:1,2014-01-07T07:05:00Z,26.0630,-83.0730,71.99,1111122 
COMPS,ioos:station:USF.COMPS:C13:1,2014-01-07T07:35:00Z,26.0630,-83.0730,72.78,1111122 
COMPS,ioos:station:USF.COMPS:C13:1,2014-01-07T08:05:00Z,26.0630,-83.0730,71.71,1111122 
COMPS,ioos:station:USF.COMPS:C13:1,2014-01-07T08:35:00Z,26.0630,-83.0730,72.51,1111122 
COMPS,ioos:station:USF.COMPS:C13:1,2014-01-07T09:05:00Z,26.0630,-83.0730,72.98,1111122 
COMPS,ioos:station:USF.COMPS:C13:1,2014-01-07T09:35:00Z,26.0630,-83.0730,71.81,1111122 
COMPS,ioos:station:USF.COMPS:C13:1,2014-01-07T15:05:00Z,26.0630,-83.0730,112.72,1111122 
COMPS,ioos:station:USF.COMPS:C13:1,2014-01-07T15:35:00Z,26.0630,-83.0730,112.73,1111122 
COMPS,ioos:station:USF.COMPS:C13:1,2014-01-07T16:05:00Z,26.0630,-83.0730,112.7,1111122 
COMPS,ioos:station:USF.COMPS:C13:1,2014-01-07T16:35:00Z,26.0630,-83.0730,112.71,1111122 
COMPS,ioos:station:USF.COMPS:C13:1,2014-01-07T17:05:00Z,26.0630,-83.0730,112.68,1111122 
COMPS,ioos:station:USF.COMPS:C13:1,2014-01-07T17:35:00Z,26.0630,-83.0730,112.67,1111122 
COMPS,ioos:station:USF.COMPS:C13:1,2014-01-07T18:05:00Z,26.0630,-83.0730,112.66,1111122 
COMPS,ioos:station:USF.COMPS:C13:1,2014-01-07T18:35:00Z,26.0630,-83.0730,112.67,1111122 
COMPS,ioos:station:USF.COMPS:C13:1,2014-01-07T19:05:00Z,26.0630,-83.0730,112.68,1111122 
COMPS,ioos:station:USF.COMPS:C13:1,2014-01-07T19:35:00Z,26.0630,-83.0730,112.67,1111122 
COMPS,ioos:station:USF.COMPS:C13:1,2014-01-07T20:05:00Z,26.0630,-83.0730,112.68,1111122 
COMPS,ioos:station:USF.COMPS:C13:1,2014-01-07T20:35:00Z,26.0630,-83.0730,112.68,1111122 
COMPS,ioos:station:USF.COMPS:C13:1,2014-01-07T21:05:00Z,26.0630,-83.0730,112.68,1111122 
COMPS,ioos:station:USF.COMPS:C13:1,2014-01-07T21:35:00Z,26.0630,-83.0730,112.7,1111122 
COMPS,ioos:station:USF.COMPS:C13:1,2014-01-07T22:05:00Z,26.0630,-83.0730,112.69,1111122 
COMPS,ioos:station:USF.COMPS:C13:1,2014-01-07T22:35:00Z,26.0630,-83.0730,112.7,1111122 
COMPS,ioos:station:USF.COMPS:C13:1,2014-01-07T23:05:00Z,26.0630,-83.0730,112.73,1111122 
COMPS,ioos:station:USF.COMPS:C13:1,2014-01-07T23:35:00Z,26.0630,-83.0730,112.75,1111122 
COMPS,ioos:station:USF.COMPS:C13:1,2014-01-08T00:05:00Z,26.0630,-83.0730,112.76,1111122 
COMPS,ioos:station:USF.COMPS:C13:1,2014-01-08T00:35:00Z,26.0630,-83.0730,112.77,1111122 
COMPS,ioos:station:USF.COMPS:C13:1,2014-01-08T01:05:00Z,26.0630,-83.0730,112.79,1111122 
COMPS,ioos:station:USF.COMPS:C13:1,2014-01-08T01:35:00Z,26.0630,-83.0730,112.79,1111122 
COMPS,ioos:station:USF.COMPS:C13:1,2014-01-08T02:05:00Z,26.0630,-83.0730,112.83,1111122 
COMPS,ioos:station:USF.COMPS:C13:1,2014-01-08T02:35:00Z,26.0630,-83.0730,112.82,1111122 
COMPS,ioos:station:USF.COMPS:C13:1,2014-01-08T03:05:00Z,26.0630,-83.0730,112.84,1111122 
COMPS,ioos:station:USF.COMPS:C13:1,2014-01-08T03:35:00Z,26.0630,-83.0730,112.82,1111122 
COMPS,ioos:station:USF.COMPS:C13:1,2014-01-08T04:05:00Z,26.0630,-83.0730,112.8,1111122 
COMPS,ioos:station:USF.COMPS:C13:1,2014-01-08T04:35:00Z,26.0630,-83.0730,112.8,1111122 
COMPS,ioos:station:USF.COMPS:C13:1,2014-01-08T05:05:00Z,26.0630,-83.0730,112.78,1111122 
COMPS,ioos:station:USF.COMPS:C13:1,2014-01-08T05:35:00Z,26.0630,-83.0730,112.77,1111122 
COMPS,ioos:station:USF.COMPS:C13:1,2014-01-08T06:05:00Z,26.0630,-83.0730,112.72,1111122 
COMPS,ioos:station:USF.COMPS:C13:1,2014-01-08T06:35:00Z,26.0630,-83.0730,112.73,1111122 
COMPS,ioos:station:USF.COMPS:C13:1,2014-01-08T07:05:00Z,26.0630,-83.0730,112.76,1111122 
COMPS,ioos:station:USF.COMPS:C13:1,2014-01-08T07:35:00Z,26.0630,-83.0730,112.78,1111122 
COMPS,ioos:station:USF.COMPS:C13:1,2014-01-08T08:05:00Z,26.0630,-83.0730,112.79,1111122 
COMPS,ioos:station:USF.COMPS:C13:1,2014-01-08T08:35:00Z,26.0630,-83.0730,112.79,1111122 
COMPS,ioos:station:USF.COMPS:C13:1,2014-01-08T09:05:00Z,26.0630,-83.0730,112.78,1111122 
COMPS,ioos:station:USF.COMPS:C13:1,2014-01-08T09:35:00Z,26.0630,-83.0730,112.78,1111122 
COMPS,ioos:station:USF.COMPS:C13:1,2014-01-08T10:05:00Z,26.0630,-83.0730,112.79,1111122 
COMPS,ioos:station:USF.COMPS:C13:1,2014-01-08T10:35:00Z,26.0630,-83.0730,112.78,1111122 
COMPS,ioos:station:USF.COMPS:C13:1,2014-01-09T16:05:00Z,26.0630,-83.0730,95.34,1111122 
COMPS,ioos:station:USF.COMPS:C13:1,2014-01-09T16:35:00Z,26.0630,-83.0730,95.29,1111122 
COMPS,ioos:station:USF.COMPS:C13:1,2014-01-09T17:05:00Z,26.0630,-83.0730,95.02,1111122 
COMPS,ioos:station:USF.COMPS:C13:1,2014-01-09T17:35:00Z,26.0630,-83.0730,94.86,1111122 
COMPS,ioos:station:USF.COMPS:C13:1,2014-01-09T18:05:00Z,26.0630,-83.0730,94.89,1111122 
COMPS,ioos:station:USF.COMPS:C13:1,2014-01-09T18:35:00Z,26.0630,-83.0730,94.99,1111122 
COMPS,ioos:station:USF.COMPS:C13:1,2014-01-09T19:05:00Z,26.0630,-83.0730,94.86,1111122 
COMPS,ioos:station:USF.COMPS:C13:1,2014-01-09T19:35:00Z,26.0630,-83.0730,94.88,1111122 
COMPS,ioos:station:USF.COMPS:C13:1,2014-01-09T20:05:00Z,26.0630,-83.0730,94.8,1111122 
COMPS,ioos:station:USF.COMPS:C13:1,2014-01-09T20:35:00Z,26.0630,-83.0730,94.76,1111122 
COMPS,ioos:station:USF.COMPS:C13:1,2014-01-09T21:05:00Z,26.0630,-83.0730,95.11,1111122 
COMPS,ioos:station:USF.COMPS:C13:1,2014-01-09T21:35:00Z,26.0630,-83.0730,96.01,1111122 
COMPS,ioos:station:USF.COMPS:C13:1,2014-01-09T22:05:00Z,26.0630,-83.0730,96.24,1111122 
COMPS,ioos:station:USF.COMPS:C13:1,2014-01-09T22:35:00Z,26.0630,-83.0730,96.62,1111122 
COMPS,ioos:station:USF.COMPS:C13:1,2014-01-09T23:05:00Z,26.0630,-83.0730,96.97,1111122 
COMPS,ioos:station:USF.COMPS:C13:1,2014-01-09T23:35:00Z,26.0630,-83.0730,96.99,1111122 
COMPS,ioos:station:USF.COMPS:C13:1,2014-01-10T00:05:00Z,26.0630,-83.0730,96.8,1111122 
COMPS,ioos:station:USF.COMPS:C13:1,2014-01-10T00:35:00Z,26.0630,-83.0730,96.77,1111122 